Weather Roundup
Issued by NWS

Home | Current Version | Previous Version | Graphics & Text | Print | Product List | Glossary Off
Versions: 1 2 3 4 5 6 7 8 9 10 11 12 13 14 15 16 17 18 19 20 21 22 23 24 25 26 27 28 29 30 31 32 33 34 35 36 37 38 39 40 41 42 43 44 45 46 47 48 49 50

000
NZUS93 KARX 251310
HRRWXR

CURRENT HOURLY OBSERVATIONS ACROSS
MUCH OF THE UPPER MISSISSIPPI VALLEY
NATIONAL WEATHER SERVICE LA CROSSE WI
800 AM CDT SAT MAR 25 2017


...SOUTHEAST MINNESOTA...


CITY           SKY/WX    TMP DP  RH WIND       PRES   REMARKS
ROCHESTER      CLOUDY    36  34  92 NE17      30.10R WCI  26
ROCHESTER/MAYO CLOUDY    36  35  96 NE10G17   30.11F WCI  29
WINONA         CLOUDY    37  32  81 E10       30.15S WCI  30
AUSTIN         CLOUDY    37  34  87 NE13G18   30.08R FOG     WCI  29
ALBERT LEA     CLOUDY    36  36 100 NE15      30.08S FOG     WCI  26
DODGE CENTER   CLOUDY    36  34  93 NE14      30.10S FOG     WCI  27
PRESTON        CLOUDY    35  32  90 NE13G18   30.09R FOG     WCI  26
OWATONNA       CLOUDY    36  32  87 NE10      30.13R WCI  28
FARIBAULT      CLOUDY    37  34  87 NE10G16   30.13S WCI  30
$$

...ELSEWHERE IN MINNESOTA...


CITY           SKY/WX    TMP DP  RH WIND       PRES   REMARKS
MINNEAPOLIS    CLOUDY    37  30  75 NE13      30.17S WCI  29
INTNL FALLS    CLOUDY    33  29  85 SE6       30.25S WCI  28
DULUTH         CLOUDY    32  29  88 E14G24    30.25R WCI  22
RED WING       CLOUDY    37  30  75 E12       30.15R WCI  30
REDWOOD FALLS  CLOUDY    36  31  82 E9        30.14F WCI  29
MANKATO        NOT AVBL
WORTHINGTON    CLOUDY    34  33  96 NE17      30.10R FOG     WCI  23
FAIRMONT       CLOUDY    36  34  92 NE14      30.10S FOG     WCI  27
$$

...SOUTHWEST WISCONSIN...


CITY           SKY/WX    TMP DP  RH WIND       PRES   REMARKS
LA CROSSE      CLOUDY    38  33  82 NE9       30.13R WCI  31
PRAIRIE DU CHI CLOUDY    36  35  96 NE9       30.07R WCI  29
BOSCOBEL       CLOUDY    38  34  85 NE10G24   30.10R WCI  31
LONE ROCK      CLOUDY    37  34  89 E12       30.12R FOG     WCI  29
PLATTEVILLE    CLOUDY    37  37 100 NE18G28   30.04S WCI  27
FORT MC COY    CLOUDY    36  33  90 NE10G17   30.15R WCI  28
CAMP DOUGLAS   CLOUDY    36  34  93 NE8       30.15R WCI  29
MAUSTON-NEW LI CLOUDY    35  34  95 E7        30.14R FOG     WCI  29
VIROQUA        CLOUDY    34  34  99 E14G22    30.09R WCI  25
WIS DELLS      CLOUDY    34  33  97 NE13      30.12S FOG     WCI  25
$$

...ELSEWHERE IN WISCONSIN...


CITY           SKY/WX    TMP DP  RH WIND       PRES   REMARKS
MILWAUKEE      CLOUDY    38  36  92 NE16G22   30.14R WCI  29
MADISON        CLOUDY    36  34  92 NE14      30.11R WCI  27
GREEN BAY      CLOUDY    35  34  96 NE21G30   30.22R WCI  24
EAU CLAIRE     CLOUDY    36  30  79 E16G24    30.17S WCI  26
BLACK RVR FLS  CLOUDY    36  34  93 NE10      30.16R WCI  28
MEDFORD        CLOUDY    32  29  90 E14G22    30.16F WCI  22
WAUSAU         CLOUDY    34  30  85 E9G18     30.18F WCI  27
WIS RAPIDS     CLOUDY    35  32  88 NE15G23   30.18R WCI  25
MARSHFIELD     CLOUDY    34  30  85 E20G29    30.16S WCI  23
RICE LAKE      CLOUDY    35  31  84 CALM      30.21S
$$

...NORTHEAST IOWA...


CITY           SKY/WX    TMP DP  RH WIND       PRES   REMARKS
WATERLOO       CLOUDY    38  35  89 NE20G26   30.01R WCI  28
DUBUQUE        CLOUDY    37  36  96 NE20G30   29.99F WCI  27
DECORAH        CLOUDY    36  34  93 NE9G21    30.06R WCI  29
MASON CITY     CLOUDY    37  35  92 NE17      30.06R WCI  27
CHARLES CITY   CLOUDY    37  37 100 NE22G28   30.05R WCI  27
OELWEIN        CLOUDY    37  36  93 NE18G25   30.01R FOG     WCI  27
$$

...ELSEWHERE IN IOWA...


CITY           SKY/WX    TMP DP  RH WIND       PRES   REMARKS
DES MOINES     LGT RAIN  41  39  93 N16G23    29.94S FOG
IOWA CITY      LGT RAIN  42  39  89 NE22G30   29.93F
FORT DODGE     CLOUDY    37  34  87 NE13G20   30.03R WCI  29
MARSHALLTOWN   LGT RAIN  38  38 100 NE18G24   29.96S FOG     WCI  28
CEDAR RAPIDS   LGT RAIN  39  39 100 NE21      29.93S FOG     WCI  29
$$

...NORTHERN ILLINOIS...


CITY           SKY/WX    TMP DP  RH WIND       PRES   REMARKS
CHICAGO-OHARE  DRIZZLE   42  39  89 NE14      30.05S
CHICAGO-MIDWAY LGT RAIN  42  41  96 NE12      30.04F FOG
MOLINE         LGT RAIN  43  40  89 NE16      29.91F FOG
ROCKFORD       CLOUDY    40  37  89 NE18G26   30.05F WCI  31
PEORIA         CLOUDY    48  47  96 E18       29.88S FOG
$$

NOTE: "FAIR" INDICATES FEW OR NO CLOUDS BELOW 12,000 FEET WITH NO
SIGNIFICANT WEATHER AND/OR OBSTRUCTIONS TO VISIBILITY. WIND
SPEEDS ARE IN MILES-PER-HOUR.




USA.gov is the U.S. government's official web portal to all federal, state and local government web resources and services.